User: anonymous   Login
Location: Pine Mountain Observatory
(43.7910°N, 120.9377°W)
Time: 01:21:23
(UTC-07:00)
Language:

APEX - Orbit

View from above orbital plane
View from above orbital plane
View from above satellite
View from above satellite

Ground track
Ground track

The orbit data is extracted from the following two-line orbital elements,

1 23191U 94046A   18145.87926672  .00003346  00000-0  11325-3 0  9996
2 23191  69.9183 142.6205 0579940 127.8737 237.6336 14.43231598165915
Epoch (UTC): 25 May 2018 21:06:08
Eccentricity: 0.0579940
inclination: 69.9183°
perigee height: 334 km
apogee height: 1161 km
right ascension of ascending node: 142.6205°
argument of perigee: 127.8737°
revolutions per day: 14.43231598
mean anomaly at epoch: 237.6336°
orbit number at epoch: 16591

The dashed part of the orbit path shows where the satellite is in the earth's shadow,  

DLR